H1 CPF 2 NER 2024 11 17 9 322 01 glonass139 H2 1808601 9139 43687 2024 11 17 0 0 0 2024 11 20 23 45 0 900 1 1 0 0 0 1 H9 10 0 60631 0.00000 0 -23564568.312 9510308.855 2275061.648 10 0 60631 900.00000 0 -23083269.540 9415386.706 5432717.652 10 0 60631 1800.00000 0 -22280000.188 9093534.741 8484913.344 10 0 60631 2700.00000 0 -21199110.811 8510256.952 11372436.212 10 0 60631 3600.00000 0 -19892997.597 7641366.022 14039293.593 10 0 60631 4500.00000 0 -18419865.939 6474255.738 16433793.661 10 0 60631 5400.00000 0 -16841272.471 5008690.254 18509541.079 10 0 60631 6300.00000 0 -15219548.689 3257076.573 20226328.708 10 0 60631 7200.00000 0 -13615213.843 1244208.224 21550908.903 10 0 60631 8100.00000 0 -12084484.758 -993509.976 22457630.397 10 0 60631 9000.00000 0 -10676985.847 -3409324.801 22928929.348 10 0 60631 9900.00000 0 -9433754.059 -5947833.741 22955665.792 10 0 60631 10800.00000 0 -8385621.020 -8547051.118 22537299.517 10 0 60631 11700.00000 0 -7552038.971 -11140756.841 21681902.191 10 0 60631 12600.00000 0 -6940398.708 -13661031.730 20406005.354 10 0 60631 13500.00000 0 -6545867.428 -16040875.510 18734286.778 10 0 60631 14400.00000 0 -6351752.823 -18216799.984 16699100.505 10 0 60631 15300.00000 0 -6330377.996 -20131290.449 14339858.755 10 0 60631 16200.00000 0 -6444430.443 -21735033.626 11702276.645 10 0 60631 17100.00000 0 -6648728.452 -22988819.548 8837493.361 10 0 60631 18000.00000 0 -6892330.605 -23865038.070 5801086.028 10 0 60631 18900.00000 0 -7120899.371 -24348707.263 2651994.809 10 0 60631 19800.00000 0 -7279218.790 -24437990.287 -548620.217 10 0 60631 20700.00000 0 -7313759.350 -24144178.699 -3738568.135 10 0 60631 21600.00000 0 -7175180.841 -23491142.551 -6855838.832 10 0 60631 22500.00000 0 -6820666.324 -22514270.120 -9839813.137 10 0 60631 23400.00000 0 -6215987.210 -21258941.785 -12632447.218 10 0 60631 24300.00000 0 -5337210.762 -19778602.279 -15179407.500 10 0 60631 25200.00000 0 -4171976.338 -18132512.595 -17431133.388 10 0 60631 26100.00000 0 -2720284.957 -16383276.371 -19343806.525 10 0 60631 27000.00000 0 -994767.384 -14594245.031 -20880207.372 10 0 60631 27900.00000 0 979582.056 -12826910.918 -22010442.251 10 0 60631 28800.00000 0 3166196.099 -11138398.054 -22712526.608 10 0 60631 29700.00000 0 5518217.656 -9579155.750 -22972813.279 10 0 60631 30600.00000 0 7980222.785 -8190951.600 -22786257.539 10 0 60631 31500.00000 0 10490312.308 -7005247.557 -22156513.949 10 0 60631 32400.00000 0 12982485.396 -6042026.534 -21095863.268 10 0 60631 33300.00000 0 15389196.591 -5309117.857 -19624970.960 10 0 60631 34200.00000 0 17643989.893 -4802048.870 -17772482.046 10 0 60631 35100.00000 0 19684100.313 -4504427.704 -15574460.267 10 0 60631 36000.00000 0 21452914.516 -4388839.877 -13073682.510 10 0 60631 36900.00000 0 22902188.025 -4418219.645 -10318802.364 10 0 60631 37800.00000 0 23993926.617 -4547636.997 -7363399.310 10 0 60631 38700.00000 0 24701853.665 -4726423.661 -4264932.324 10 0 60631 39600.00000 0 25012402.564 -4900547.148 -1083618.702 10 0 60631 40500.00000 0 24925193.395 -5015131.503 2118739.630 10 0 60631 41400.00000 0 24452974.761 -5017017.319 5279959.031 10 0 60631 42300.00000 0 23621034.167 -4857252.089 8338682.436 10 0 60631 43200.00000 0 22466102.700 -4493405.123 11235569.289 10 0 60631 44100.00000 0 21034800.834 -3891608.842 13914443.917 10 0 60631 45000.00000 0 19381691.250 -3028240.043 16323380.189 10 0 60631 45900.00000 0 17567020.750 -1891169.982 18415701.834 10 0 60631 46800.00000 0 15654245.900 -480530.349 20150879.698 10 0 60631 47700.00000 0 13707445.727 1191037.541 21495309.342 10 0 60631 48600.00000 0 11788729.030 3098661.454 22422954.835 10 0 60631 49500.00000 0 9955743.688 5206034.155 22915847.216 10 0 60631 50400.00000 0 8259390.853 7466694.426 22964428.686 10 0 60631 51300.00000 0 6741838.174 9825741.151 22567736.450 10 0 60631 52200.00000 0 5434913.698 12221910.617 21733422.872 10 0 60631 53100.00000 0 4358946.356 14589932.052 20477611.443 10 0 60631 54000.00000 0 3522100.472 16863064.938 18824590.926 10 0 60631 54900.00000 0 2920231.373 18975713.814 16806352.852 10 0 60631 55800.00000 0 2537267.578 20866012.730 14461980.420 10 0 60631 56700.00000 0 2346103.259 22478272.412 11836899.604 10 0 60631 57600.00000 0 2309963.245 23765188.419 8982006.005 10 0 60631 58500.00000 0 2384183.068 24689718.056 5952683.553 10 0 60631 59400.00000 0 2518328.839 25226547.285 2807733.487 10 0 60631 60300.00000 0 2658567.270 25363085.719 -391765.916 10 0 60631 61200.00000 0 2750185.248 25099947.345 -3583646.671 10 0 60631 62100.00000 0 2740151.751 24450896.200 -6705862.152 10 0 60631 63000.00000 0 2579612.844 23442258.719 -9697697.830 10 0 60631 63900.00000 0 2226213.064 22111827.011 -12500957.460 10 0 60631 64800.00000 0 1646143.721 20507298.920 -15061100.957 10 0 60631 65700.00000 0 815830.112 18684320.295 -17328311.164 10 0 60631 66600.00000 0 -276815.086 16704211.750 -19258468.182 10 0 60631 67500.00000 0 -1631626.605 14631475.472 -20814011.898 10 0 60631 68400.00000 0 -3235943.227 12531186.774 -21964675.751 10 0 60631 69300.00000 0 -5064897.871 10466379.816 -22688077.334 10 0 60631 70200.00000 0 -7082230.180 8495536.975 -22970154.452 10 0 60631 71100.00000 0 -9241588.597 6670286.716 -22805438.276 10 0 60631 72000.00000 0 -11488268.319 5033405.905 -22197158.444 10 0 60631 72900.00000 0 -13761313.097 3617209.503 -21157178.237 10 0 60631 73800.00000 0 -15995893.612 2442394.115 -19705761.190 10 0 60631 74700.00000 0 -18125863.323 1517382.769 -17871173.766 10 0 60631 75600.00000 0 -20086385.260 838197.076 -15689131.891 10 0 60631 76500.00000 0 -21816520.097 388860.696 -13202102.165 10 0 60631 77400.00000 0 -23261667.327 142315.662 -10458471.484 10 0 60631 78300.00000 0 -24375757.532 61811.441 -7511601.427 10 0 60631 79200.00000 0 -25123104.091 102706.683 -4418786.110 10 0 60631 80100.00000 0 -25479837.019 214606.244 -1240134.184 10 0 60631 81000.00000 0 -25434859.247 343741.930 1962602.789 10 0 60631 81900.00000 0 -24990285.781 435495.286 5127232.349 10 0 60631 82800.00000 0 -24161347.993 436954.898 8192329.712 10 0 60631 83700.00000 0 -22975767.779 299399.438 11098429.120 10 0 60631 84600.00000 0 -21472628.543 -19398.914 13789174.768 10 0 60631 85500.00000 0 -19700790.881 -553148.235 16212409.070 10 0 60632 0.00000 0 -17716919.938 -1325373.398 18321177.375 10 0 60632 900.00000 0 -15583205.897 -2348186.117 20074631.409 10 0 60632 1800.00000 0 -13364875.416 -3621539.447 21438811.945 10 0 60632 2700.00000 0 -11127593.773 -5132999.846 22387300.244 10 0 60632 3600.00000 0 -8934867.817 -6858046.119 22901723.675 10 0 60632 4500.00000 0 -6845555.824 -8760884.016 22972107.641 10 0 60632 5400.00000 0 -4911586.898 -10795743.614 22597067.387 10 0 60632 6300.00000 0 -3175983.506 -12908606.713 21783836.204 10 0 60632 7200.00000 0 -1671268.289 -15039293.676 20548129.397 10 0 60632 8100.00000 0 -418320.329 -17123824.211 18913846.229 10 0 60632 9000.00000 0 574272.379 -19096955.058 16912614.891 10 0 60632 9900.00000 0 1310337.996 -20894789.837 14583188.392 10 0 60632 10800.00000 0 1805718.774 -22457352.990 11970702.102 10 0 60632 11700.00000 0 2087359.180 -23731020.755 9125806.282 10 0 60632 12600.00000 0 2191922.787 -24670707.545 6103689.655 10 0 60632 13500.00000 0 2163996.434 -25241715.939 2963012.313 10 0 60632 14400.00000 0 2053957.699 -25421172.171 -235231.675 10 0 60632 15300.00000 0 1915596.138 -25198986.095 -3428899.827 10 0 60632 16200.00000 0 1803589.431 -24578294.486 -6555911.710 10 0 60632 17100.00000 0 1770941.976 -23575368.164 -9555460.253 10 0 60632 18000.00000 0 1866495.286 -22218986.100 -12369199.712 10 0 60632 18900.00000 0 2132616.637 -20549302.184 -14942386.434 10 0 60632 19800.00000 0 2603165.001 -18616251.823 -17224949.621 10 0 60632 20700.00000 0 3301821.526 -16477564.972 -19172470.616 10 0 60632 21600.00000 0 4240856.401 -14196468.846 -20747051.312 10 0 60632 22500.00000 0 5420385.427 -11839176.472 -21918054.537 10 0 60632 23400.00000 0 6828148.827 -9472266.236 -22662701.928 10 0 60632 24300.00000 0 8439822.758 -7160061.895 -22966517.743 10 0 60632 25200.00000 0 10219851.457 -4962122.358 -22823610.099 10 0 60632 26100.00000 0 12122765.962 -2930945.725 -22236784.339 10 0 60632 27000.00000 0 14094934.834 -1109982.879 -21217486.481 10 0 60632 27900.00000 0 16076674.070 467957.201 -19785577.944 10 0 60632 28800.00000 0 18004628.218 1781844.817 -17968946.049 10 0 60632 29700.00000 0 19814323.171 2823063.277 -15802957.907 10 0 60632 30600.00000 0 21442783.843 3595513.923 -13329768.400 10 0 60632 31500.00000 0 22831107.035 4115189.615 -10597495.852 10 0 60632 32400.00000 0 23926881.612 4409236.291 -7659281.633 10 0 60632 33300.00000 0 24686354.483 4514543.774 -4572252.283 10 0 60632 34200.00000 0 25076251.547 4475926.815 -1396404.774 10 0 60632 35100.00000 0 25075177.324 4343974.613 1806562.960 10 0 60632 36000.00000 0 24674534.761 4172660.933 4974453.017 10 0 60632 36900.00000 0 23878926.991 4016816.854 8045776.259 10 0 60632 37800.00000 0 22706024.615 3929573.756 10960944.986 10 0 60632 38700.00000 0 21185904.517 3959885.173 13663426.330 10 0 60632 39600.00000 0 19359888.322 4150232.448 16100834.057 10 0 60632 40500.00000 0 17278929.373 4534611.219 18225938.007 10 0 60632 41400.00000 0 15001615.676 5136883.621 19997572.233 10 0 60632 42300.00000 0 12591871.976 5969565.689 21381425.006 10 0 60632 43200.00000 0 10116456.276 7033101.099 22350696.320 10 0 60632 44100.00000 0 7642354.197 8315652.141 22886611.036 10 0 60632 45000.00000 0 5234178.591 9793417.268 22978778.532 10 0 60632 45900.00000 0 2951681.256 11431462.866 22625392.436 10 0 60632 46800.00000 0 847478.831 13185035.573 21833266.867 10 0 60632 47700.00000 0 -1034913.900 15001301.626 20617708.386 10 0 60632 48600.00000 0 -2662662.778 16821441.941 19002225.765 10 0 60632 49500.00000 0 -4014740.510 18583016.798 17018082.452 10 0 60632 50400.00000 0 -5082554.331 20222502.460 14703699.533 10 0 60632 51300.00000 0 -5870049.646 21677894.619 12103919.725 10 0 60632 52200.00000 0 -6393285.868 22891270.274 9269145.682 10 0 60632 53100.00000 0 -6679502.684 23811200.917 6254368.468 10 0 60632 54000.00000 0 -6765716.360 24394915.614 3118104.423 10 0 60632 54900.00000 0 -6696905.544 24610122.651 -78739.297 10 0 60632 55800.00000 0 -6523863.512 24436412.377 -3274048.478 10 0 60632 56700.00000 0 -6300808.110 23866181.251 -6405711.647 10 0 60632 57600.00000 0 -6082851.092 22905037.187 -9412831.927 10 0 60632 58500.00000 0 -5923434.754 21571668.071 -12236916.687 10 0 60632 59400.00000 0 -5871845.280 19897178.041 -14823021.170 10 0 60632 60300.00000 0 -5970909.027 17923918.596 -17120823.191 10 0 60632 61200.00000 0 -6254970.332 15703863.005 -19085607.391 10 0 60632 62100.00000 0 -6748237.356 13296591.720 -20679139.480 10 0 60632 63000.00000 0 -7463566.945 10766972.836 -21870413.261 10 0 60632 63900.00000 0 -8401740.775 8182634.458 -22636255.748 10 0 60632 64800.00000 0 -9551264.208 5611334.352 -22961778.701 10 0 60632 65700.00000 0 -10888697.214 3118336.451 -22840667.920 10 0 60632 66600.00000 0 -12379504.135 763903.361 -22275304.826 10 0 60632 67500.00000 0 -13979387.215 -1398991.112 -21276718.133 10 0 60632 68400.00000 0 -15636048.344 -3326634.697 -19864366.687 10 0 60632 69300.00000 0 -17291305.402 -4986153.241 -18065757.771 10 0 60632 70200.00000 0 -18883474.531 -6356626.491 -15915908.394 10 0 60632 71100.00000 0 -20349918.423 -7429697.784 -13456660.084 10 0 60632 72000.00000 0 -21629653.545 -8209653.635 -10735860.671 10 0 60632 72900.00000 0 -22665906.687 -8712971.615 -7806429.177 10 0 60632 73800.00000 0 -23408513.283 -8967357.218 -4725322.257 10 0 60632 74700.00000 0 -23816056.557 -9010312.000 -1552422.750 10 0 60632 75600.00000 0 -23857657.504 -8887294.948 1650627.598 10 0 60632 76500.00000 0 -23514340.485 -8649556.128 4821628.117 10 0 60632 77400.00000 0 -22779917.143 -8351735.311 7899028.066 10 0 60632 78300.00000 0 -21661351.697 -8049327.978 10823120.605 10 0 60632 79200.00000 0 -20178592.473 -7796126.390 13537198.595 10 0 60632 80100.00000 0 -18363876.926 -7641744.187 15988649.876 10 0 60632 81000.00000 0 -16260539.320 -7629329.082 18129971.156 10 0 60632 81900.00000 0 -13921370.823 -7793560.065 19919681.499 10 0 60632 82800.00000 0 -11406600.132 -8159013.334 21323118.457 10 0 60632 83700.00000 0 -8781578.264 -8738965.594 22313102.353 10 0 60632 84600.00000 0 -6114262.972 -9534685.020 22870456.754 10 0 60632 85500.00000 0 -3472606.363 -10535239.886 22984375.803 10 0 60633 0.00000 0 -921953.159 -11717833.258 22652631.975 10 0 60633 900.00000 0 1477445.076 -13048651.157 21881620.204 10 0 60633 1800.00000 0 3672694.513 -14484188.097 20686238.041 10 0 60633 2700.00000 0 5620214.234 -15972997.765 19089603.181 10 0 60633 3600.00000 0 7287298.500 -17457795.261 17122613.444 10 0 60633 4500.00000 0 8653223.430 -18877824.652 14823356.801 10 0 60633 5400.00000 0 9709852.546 -20171393.486 12236381.827 10 0 60633 6300.00000 0 10461716.539 -21278468.723 9411841.763 10 0 60633 7200.00000 0 10925564.368 -22143225.419 6404527.909 10 0 60633 8100.00000 0 11129404.960 -22716441.058 3272810.499 10 0 60633 9000.00000 0 11111080.167 -22957634.391 77507.198 10 0 60633 9900.00000 0 10916429.455 -22836858.004 -3119298.784 10 0 60633 10800.00000 0 10597124.253 -22336068.105 -6255467.783 10 0 60633 11700.00000 0 10208263.994 -21450012.643 -9270016.005 10 0 60633 12600.00000 0 9805836.174 -20186599.094 -12104306.837 10 0 60633 13500.00000 0 9444148.655 -18566725.224 -14703197.270 10 0 60633 14400.00000 0 9173343.686 -16623578.780 -17016116.486 10 0 60633 15300.00000 0 9037099.697 -14401434.592 -18998054.983 10 0 60633 16200.00000 0 9070618.911 -11953998.732 -20610444.606 10 0 60633 17100.00000 0 9298986.618 -9342368.487 -21821912.102 10 0 60633 18000.00000 0 9735972.186 -6632692.987 -22608891.439 10 0 60633 18900.00000 0 10383323.030 -3893631.853 -22956083.024 10 0 60633 19800.00000 0 11230581.904 -1193717.528 -22856751.031 10 0 60633 20700.00000 0 12255435.700 1401269.090 -22312853.206 10 0 60633 21600.00000 0 13424581.448 3830800.822 -21335000.802 10 0 60633 22500.00000 0 14695073.378 6041880.546 -19942249.533 10 0 60633 23400.00000 0 16016094.543 7990997.564 -18161725.730 10 0 60633 24300.00000 0 17331078.549 9645683.406 -16028095.016 10 0 60633 25200.00000 0 18580092.127 10985603.285 -13582883.940 10 0 60633 26100.00000 0 19702378.120 12003138.960 -10873667.866 10 0 60633 27000.00000 0 20638951.692 12703440.164 -7953141.154 10 0 60633 27900.00000 0 21335140.211 13103944.132 -4878087.974 10 0 60633 28800.00000 0 21742959.586 13233385.145 -1708274.200 10 0 60633 29700.00000 0 21823226.799 13130337.463 1494717.610 10 0 60633 30600.00000 0 21547319.522 12841354.640 4668687.063 10 0 60633 31500.00000 0 20898508.645 12418785.051 7752024.833 10 0 60633 32400.00000 0 19872807.652 11918356.937 10684907.835 10 0 60633 33300.00000 0 18479303.141 11396635.699 13410457.381 10 0 60633 34200.00000 0 16739952.562 10908461.201 15875837.873 10 0 60633 35100.00000 0 14688857.574 10504473.375 18033275.135 10 0 60633 36000.00000 0 12371043.133 10228830.304 19840975.227 10 0 60633 36900.00000 0 9840792.875 10117214.621 21263926.691 10 0 60633 37800.00000 0 7159609.538 10195211.742 22274571.600 10 0 60633 38700.00000 0 4393884.380 10477127.790 22853333.310 10 0 60633 39600.00000 0 1612371.404 10965296.639 22988991.474 10 0 60633 40500.00000 0 -1116430.053 11649905.226 22678897.650 10 0 60633 41400.00000 0 -3726877.129 12509344.735 21929027.619 10 0 60633 42300.00000 0 -6158663.084 13511073.548 20753869.362 10 0 60633 43200.00000 0 -8359073.248 14612956.583 19176148.503 10 0 60633 44100.00000 0 -10284924.788 15765025.876 17226395.831 10 0 60633 45000.00000 0 -11904110.659 16911589.544 14942364.420 10 0 60633 45900.00000 0 -13196684.288 17993601.582 12368306.636 10 0 60633 46800.00000 0 -14155440.358 18951193.672 9554124.006 10 0 60633 47700.00000 0 -14785967.889 19726262.996 6554405.628 10 0 60633 48600.00000 0 -15106173.731 20265007.220 3427373.077 10 0 60633 49500.00000 0 -15145296.805 20520299.586 233751.913 10 0 60633 50400.00000 0 -14942454.833 20453803.311 -2964408.312 10 0 60633 51300.00000 0 -14544785.190 20037735.151 -6104942.409 10 0 60633 52200.00000 0 -14005258.753 19256202.547 -9126782.312 10 0 60633 53100.00000 0 -13380259.664 18106056.578 -11971150.001 10 0 60633 54000.00000 0 -12727033.922 16597223.408 -14582706.665 10 0 60633 54900.00000 0 -12101115.381 14752498.864 -16910635.124 10 0 60633 55800.00000 0 -11553838.687 12606813.544 -18909633.781 10 0 60633 56700.00000 0 -11130044.955 10205998.189 -20540802.396 10 0 60633 57600.00000 0 -10866077.727 7605100.119 -21772402.165 10 0 60633 58500.00000 0 -10788154.353 4866320.456 -22580475.204 10 0 60633 59400.00000 0 -10911181.924 2056657.690 -22949311.431 10 0 60633 60300.00000 0 -11238067.982 -754644.580 -22871753.913 10 0 60633 61200.00000 0 -11759555.248 -3498739.781 -22349336.864 10 0 60633 62100.00000 0 -12454587.423 -6109800.770 -21392253.814 10 0 60633 63000.00000 0 -13291190.658 -8527513.815 -20019156.688 10 0 60633 63900.00000 0 -14227833.464 -10699340.900 -18256789.803 10 0 60633 64800.00000 0 -15215207.654 -12582456.835 -16139465.993 10 0 60633 65700.00000 0 -16198355.041 -14145281.367 -13708395.107 10 0 60633 66600.00000 0 -17119049.973 -15368543.428 -11010878.086 10 0 60633 67500.00000 0 -17918336.957 -16245834.369 -8099382.505 10 0 60633 68400.00000 0 -18539115.953 -16783628.517 -5030517.787 10 0 60633 69300.00000 0 -18928665.958 -17000771.782 -1863930.497 10 0 60633 70200.00000 0 -19041000.077 -16927461.483 1338858.408 10 0 60633 71100.00000 0 -18838952.457 -16603761.873 4515651.304 10 0 60633 72000.00000 0 -18295908.871 -16077719.382 7604782.819 10 0 60633 72900.00000 0 -17397107.865 -15403158.205 10546316.212 10 0 60633 73800.00000 0 -16140457.533 -14637250.144 13283203.820 10 0 60633 74700.00000 0 -14536833.442 -13837961.712 15762389.131 10 0 60633 75600.00000 0 -12609844.936 -13061486.373 17935829.470 10 0 60633 76500.00000 0 -10395079.219 -12359769.946 19761420.068 10 0 60633 77400.00000 0 -7938854.293 -11778233.004 21203802.355 10 0 60633 78300.00000 0 -5296532.007 -11353785.495 22235041.721 10 0 60633 79200.00000 0 -2530460.471 -11113216.411 22835162.527 10 0 60633 80100.00000 0 292369.732 -11072025.550 22992530.775 10 0 60633 81000.00000 0 3102859.558 -11233746.005 22704077.649 10 0 60633 81900.00000 0 5832422.027 -11589785.598 21975359.867 10 0 60633 82800.00000 0 8415581.961 -12119794.030 20820455.687 10 0 60633 83700.00000 0 10792448.482 -12792540.710 19261698.196 10 0 60633 84600.00000 0 12910958.875 -13567267.020 17329250.377 10 0 60633 85500.00000 0 14728801.580 -14395457.000 15060529.322 10 0 60634 0.00000 0 16214939.013 -15222952.705 12499489.989 10 0 60634 900.00000 0 17350668.060 -15992326.413 9695779.940 10 0 60634 1800.00000 0 18130172.437 -16645409.149 6703784.117 10 0 60634 2700.00000 0 18560546.696 -17125870.635 3581572.927 10 0 60634 3600.00000 0 18661289.033 -17381740.564 389777.020 10 0 60634 4500.00000 0 18463285.181 -17367764.689 -2809590.721 10 0 60634 5400.00000 0 18007326.271 -17047495.291 -5954342.720 10 0 60634 6300.00000 0 17342223.381 -16395026.583 -8983329.802 10 0 60634 7200.00000 0 16522598.746 -15396300.417 -11837635.638 10 0 60634 8100.00000 0 15606447.343 -14049925.699 -14461728.589 10 0 60634 9000.00000 0 14652572.391 -12367475.450 -16804547.882 10 0 60634 9900.00000 0 13718003.649 -10373247.543 -18820502.349 10 0 60634 10800.00000 0 12855508.066 -8103497.789 -20470361.875 10 0 60634 11700.00000 0 12111298.321 -5605176.349 -21722023.944 10 0 60634 12600.00000 0 11523036.256 -2934219.381 -22551140.235 10 0 60634 13500.00000 0 11118215.625 -153466.484 -22941591.150 10 0 60634 14400.00000 0 10912992.323 2669709.795 -22885799.137 10 0 60634 15300.00000 0 10911511.345 5465964.119 -22384874.907 10 0 60634 16200.00000 0 11105758.566 8166621.987 -21448593.850 10 0 60634 17100.00000 0 11475943.278 10706297.262 -20095203.270 10 0 60634 18000.00000 0 11991394.979 13025375.027 -18351064.261 10 0 60634 18900.00000 0 12611936.127 15072256.970 -16250135.292 10 0 60634 19800.00000 0 13289672.522 16805276.402 -13833307.612 10 0 60634 20700.00000 0 13971125.221 18194203.820 -11147605.531 10 0 60634 21600.00000 0 14599613.498 19221281.204 -8245267.330 10 0 60634 22500.00000 0 15117787.688 19881742.980 -5182724.953 10 0 60634 23400.00000 0 15470204.428 20183803.205 -2019502.726 10 0 60634 24300.00000 0 15605835.041 20148110.998 1182943.029 10 0 60634 25200.00000 0 15480400.716 19806698.613 4362420.497 10 0 60634 26100.00000 0 15058435.538 19201467.811 7457211.237 10 0 60634 27000.00000 0 14314990.055 18382279.551 10407267.661 10 0 60634 27900.00000 0 13236903.292 17404728.407 13155375.737 10 0 60634 28800.00000 0 11823589.433 16327696.149 15648260.388 10 0 60634 29700.00000 0 10087305.761 15210787.813 17837612.516 10 0 60634 30600.00000 0 8052890.160 14111758.079 19681018.322 10 0 60634 31500.00000 0 5756978.559 13084035.841 21142773.627 10 0 60634 32400.00000 0 3246734.199 12174450.315 22194568.342 10 0 60634 33300.00000 0 578140.638 11421253.384 22816028.706 10 0 60634 34200.00000 0 -2186071.635 10852520.270 22995107.591 10 0 60634 35100.00000 0 -4978780.211 10484994.841 22728315.921 10 0 60634 36000.00000 0 -7731011.091 10323427.322 22020791.053 10 0 60634 36900.00000 0 -10374560.384 10360431.779 20886200.768 10 0 60634 37800.00000 0 -12844590.018 10576869.253 19346484.412 10 0 60634 38700.00000 0 -15082090.977 10942740.595 17431435.533 10 0 60634 39600.00000 0 -17036112.762 11418551.875 15178133.228 10 0 60634 40500.00000 0 -18665667.136 11957095.450 12630232.252 10 0 60634 41400.00000 0 -19941227.382 12505572.223 9837124.594 10 0 60634 42300.00000 0 -20845760.796 13007966.106 6852987.944 10 0 60634 43200.00000 0 -21375251.362 13407570.704 3735738.819 10 0 60634 44100.00000 0 -21538690.762 13649561.483 545910.239 10 0 60634 45000.00000 0 -21357538.018 13683504.328 -2654524.289 10 0 60634 45900.00000 0 -20864670.557 13465693.697 -5803357.447 10 0 60634 46800.00000 0 -20102870.880 12961220.473 -8839361.544 10 0 60634 47700.00000 0 -19122912.872 12145680.804 -11703484.438 10 0 60634 48600.00000 0 -17981328.698 11006452.271 -14340004.012 10 0 60634 49500.00000 0 -16737950.906 9543481.942 -16697618.061 10 0 60634 50400.00000 0 -15453333.850 7769551.541 -18730447.736 10 0 60634 51300.00000 0 -14186163.570 5710007.030 -20398934.621 10 0 60634 52200.00000 0 -12990765.673 3401962.571 -21670613.700 10 0 60634 53100.00000 0 -11914816.439 893010.992 -22520747.049 10 0 60634 54000.00000 0 -10997353.605 -1760506.311 -22932805.969 10 0 60634 54900.00000 0 -10267170.420 -4495598.654 -22898792.317 10 0 60634 55800.00000 0 -9741660.297 -7245007.589 -22419392.922 10 0 60634 56700.00000 0 -9426160.181 -9939771.965 -21503964.281 10 0 60634 57600.00000 0 -9313819.674 -12511870.144 -20170347.957 10 0 60634 58500.00000 0 -9386000.709 -14896829.694 -18444520.377 10 0 60634 59400.00000 0 -9613190.155 -17036196.279 -16360083.944 10 0 60634 60300.00000 0 -9956386.049 -18879759.317 -13957609.391 10 0 60634 61200.00000 0 -10368898.172 -20387442.115 -11283842.338 10 0 60634 62100.00000 0 -10798486.096 -21530778.282 -8390789.653 10 0 60634 63000.00000 0 -11189743.654 -22293913.610 -5334703.644 10 0 60634 63900.00000 0 -11486628.298 -22674092.491 -2174984.257 10 0 60634 64800.00000 0 -11635027.788 -22681609.752 1026978.950 10 0 60634 65700.00000 0 -11585255.127 -22339231.178 4209002.097 10 0 60634 66600.00000 0 -11294365.833 -21681108.413 7309315.812 10 0 60634 67500.00000 0 -10728199.275 -20751235.052 10267763.813 10 0 60634 68400.00000 0 -9863057.605 -19601509.896 13026967.851 10 0 60634 69300.00000 0 -8686951.208 -18289489.579 15533436.405 10 0 60634 70200.00000 0 -7200357.926 -16875925.475 17738595.999 10 0 60634 71100.00000 0 -5416463.682 -15422188.425 19599725.698 10 0 60634 72000.00000 0 -3360873.828 -13987689.125 21080777.412 10 0 60634 72900.00000 0 -1070806.500 -12627401.762 22153067.018 10 0 60634 73800.00000 0 1406199.422 -11389593.825 22795823.792 10 0 60634 74700.00000 0 4014009.057 -10313856.197 22996588.336 10 0 60634 75600.00000 0 6689978.656 -9429514.960 22751451.871 10 0 60634 76500.00000 0 9367319.861 -8754490.406 22065132.647 10 0 60634 77400.00000 0 11977644.408 -8294650.270 20950887.932 10 0 60634 78300.00000 0 14453585.076 -8043683.662 19430263.015 10 0 60634 79200.00000 0 16731385.349 -7983500.698 17532681.391 10 0 60634 80100.00000 0 18753351.188 -8085140.998 15294883.239 10 0 60634 81000.00000 0 20470063.736 -8310152.967 12760222.084 10 0 60634 81900.00000 0 21842261.260 -8612386.108 9977832.236 10 0 60634 82800.00000 0 22842312.001 -8940121.035 7001682.326 10 0 60634 83700.00000 0 23455216.399 -9238447.494 3889532.568 10 0 60634 84600.00000 0 23679096.528 -9451789.873 701815.597 10 0 60634 85500.00000 0 23525152.021 -9526473.117 -2499537.480 99